Regional Weather Roundup
Issued by NWS

Home | Current Version | Previous Version | Graphics & Text | Print | Product List | Glossary On
Versions: 1 2 3 4 5 6 7 8 9 10 11 12 13 14 15 16 17 18 19 20 21 22 23 24 25 26 27 28 29 30 31 32 33 34 35 36 37 38 39 40 41 42 43 44 45 46 47 48 49 50
000
ASUS44 KMEG 242210
RWRTN
TENNESSEE HOURLY STATE WEATHER ROUNDUP
NATIONAL WEATHER SERVICE MEMPHIS TN
500 PM CDT SUN JUL 24 2016

TNZ002-004-019-021-049-052-054-088>092-242300-
WEST TENNESSEE

CITY           SKY/WX    TMP DP  RH WIND       PRES   REMARKS
MEMPHIS INTL   MOSUNNY   91  75  59 CALM      29.94S HX 101
NWS MEMPHIS      N/A     90 N/A N/A MISG        N/A
JACKSON        PTSUNNY   93  75  55 SW8       29.95S HX 104
DYERSBURG      SUNNY     91  75  59 MISG      29.94S HX 102
UNION CITY     SUNNY     90  75  62 CALM      29.93F HX 100
PARIS          SUNNY     91  73  55 SW3       29.97S HX 100
LEXINGTON      PTSUNNY   82  73  74 S12       29.98R
$$

TNZ008-025-027-028-033-062-065-066-242300-
NORTH MIDDLE TENNESSEE

CITY           SKY/WX    TMP DP  RH WIND       PRES   REMARKS
NASHVILLE      PTSUNNY   96  68  39 NE3       29.97F HX 101
CLARKSVILLE    MOSUNNY   92  74  55 VRB3      29.96F HX 101
SMYRNA         LGT RAIN  91  75  59 N10       29.98S HX 101
COOKEVILLE     SUNNY     95  75  52 CALM      30.00F HX 107
CROSSVILLE     MOSUNNY   82  73  74 CALM      30.08F
$$

TNZ061-075-076-078-094-096-097-242300-
SOUTH MIDDLE TENNESSEE

CITY           SKY/WX    TMP DP  RH WIND       PRES   REMARKS
FAYETTEVILLE   SUNNY     88  72  58 CALM      30.00F HX  94
TULLAHOMA      SUNNY     91  70  49 SW8       30.02S HX  97
WINCHESTER     SUNNY     84  73  70 SW10      30.02R HX  91
MCMINNVILLE    SUNNY     93  77  59 CALM      30.01F HX 107
COLUMBIA       PTSUNNY   93  73  52 SE5       29.96S HX 102
SHELBYVILLE    SUNNY     93  75  55 SE3       29.99F HX 104
$$

TNZ017-018-042-046-047-242300-
NORTHEAST TENNESSEE

CITY           SKY/WX    TMP DP  RH WIND       PRES   REMARKS
TRI CITIES     PTSUNNY   95  64  35 CALM      30.03R HX  97
ELIZABETHTON   MOSUNNY   84  68  58 CALM      30.06R
$$

TNZ012-013-036-069-073-074-242300-
CENTRAL EAST TENNESSEE

CITY           SKY/WX    TMP DP  RH WIND       PRES   REMARKS
KNOXVILLE      PTSUNNY   93  68  43 W8        30.00  HX  97
OAK RIDGE      SUNNY     94  66  39 S3        30.02S HX  97
GATLINBURG       N/A     90  70  51 VRB5      30.01R HX  95
MORRISTOWN     SUNNY     95  64  36 VRB5      30.01F HX  97
$$

TNZ083-085-099-242300-
SOUTHEAST TENNESSEE

CITY           SKY/WX    TMP DP  RH WIND       PRES   REMARKS
CHATTANOOGA    TSTM      82  74  76 W7        29.99R
$$

SKY/WX REPORTED AS FAIR MEANS FEW OR NO CLOUDS BELOW
12 THOUSAND FEET.





USA.gov is the U.S. government's official web portal to all federal, state and local government web resources and services.